Retour au catalogue

STARLINK-2622

ActifCommunicationsVLEO
NORAD 48360·PAYLOAD·🇺🇸 United States

Lancé May 4, 2021 depuis Cape Canaveral Space Force Station

Loading…

Prochains Passages (prochaines 24 heures)

TLE

FraisSource: CelesTrak SupGP

Époque: Sep 15, 2026, 00:49 UTC

1 48360C 21038H   26258.03451389 -.00025251  00000+0 -81219-3 0  2589
2 48360  53.1590 196.9877 0001390  96.9480  24.7246 15.31707478    11

Suivez STARLINK-2622 en temps réel avec AllMySat

Download on the App Store